DateTime,DeltaTime,Roll,TargetAngle,Position,Power
2022-05-19 13:15:14.931,0,-42.54,-22,0,81.22
2022-05-19 13:15:15.045,0.114000588655472,-41.92,-22,0,81.22
2022-05-19 13:15:15.161,0.229992717504501,-34.09,-22,0,81.22
2022-05-19 13:15:15.275,0.343993306159973,-15.25,-4.69,0,-5.38
2022-05-19 13:15:15.390,0.45899972319603,5.4,28,0,-90
2022-05-19 13:15:15.504,0.573000311851501,19.31,28,0,-90
2022-05-19 13:15:15.620,0.688992440700531,22.71,28,0,-90
2022-05-19 13:15:15.734,0.802993029356003,16.59,24.37,0,-85.22
2022-05-19 13:15:15.848,0.916993618011475,4.85,-22,0,90
2022-05-19 13:15:15.963,1.03200003504753,-7.6,-22,0,81.22
2022-05-19 13:15:16.078,1.14699639379978,-16,-22,0,81.22
2022-05-19 13:15:16.192,1.26099698245525,-17.84,-22,0,81.22
2022-05-19 13:15:16.306,1.37499757111073,-13.85,-22,0,81.22
2022-05-19 13:15:16.421,1.48999392986298,-6.23,4.41,0,-50.85
2022-05-19 13:15:16.536,1.60500034689903,2.04,28,0,-90
2022-05-19 13:15:16.651,1.71999670565128,7.69,28,0,-90
2022-05-19 13:15:16.765,1.83399729430676,8.67,27.63,0,-90
2022-05-19 13:15:16.881,1.94999948143959,5.51,-1.55,0,43.96
2022-05-19 13:15:16.995,2.06400007009506,0.29,-22,0,90
2022-05-19 13:15:17.106,2.17499323189259,-4.69,-22,0,81.22
2022-05-19 13:15:17.220,2.28899382054806,-7.5,-22,0,81.21
2022-05-19 13:15:17.335,2.40400023758411,-7.37,-22,0,81.22
2022-05-19 13:15:17.449,2.51800082623959,-4.81,-12.68,0,34.61
2022-05-19 13:15:17.564,2.63299718499184,-1.37,3.21,0,-31.51
2022-05-19 13:15:17.679,2.74799354374409,1.55,11.19,0,-50.91
2022-05-19 13:15:17.793,2.86199413239956,2.92,9.16,0,-31.18
2022-05-19 13:15:17.909,2.97799631953239,2.49,-0.11,0,11.71
2022-05-19 13:15:18.023,3.09199690818787,0.92,-10.65,0,52.29
2022-05-19 13:15:18.137,3.20599749684334,-0.86,-17.82,0,75.16
2022-05-19 13:15:18.252,3.32099385559559,-2.05,-19.34,0,73.41
2022-05-19 13:15:18.367,3.43600027263165,-2.23,-15.59,0,52.63
2022-05-19 13:15:18.482,3.5509966313839,-1.54,-9.36,0,26.41
2022-05-19 13:15:18.596,3.66499722003937,-0.45,-3.84,0,7.81
2022-05-19 13:15:18.711,3.77999357879162,0.37,-2.14,0,6.87
2022-05-19 13:15:18.825,3.89399416744709,0.4,-5.42,0,25.73
2022-05-19 13:15:18.941,4.00999635457993,-0.22,-10.47,0,47.18
2022-05-19 13:15:19.055,4.1239969432354,-0.93,-13.35,0,53.06
2022-05-19 13:15:19.169,4.23799753189087,-1.2,-12.39,0,44.46
2022-05-19 13:15:19.284,4.35299389064312,-0.74,-7.58,0,22.82
2022-05-19 13:15:19.399,4.46800030767918,0.22,-2.05,0,2.16
2022-05-19 13:15:19.514,4.58299666643143,1.07,0.47,0,-3.03
2022-05-19 13:15:19.628,4.6969972550869,1.29,-1.55,0,10.35
2022-05-19 13:15:19.743,4.81199361383915,0.69,-7.23,0,36.25
2022-05-19 13:15:19.858,4.92700003087521,-0.4,-13.16,0,59.13
2022-05-19 13:15:19.972,5.04100061953068,-1.42,-16.44,0,65
2022-05-19 13:15:20.087,5.15599697828293,-1.75,-14.53,0,51.15
2022-05-19 13:15:20.201,5.2699975669384,-1.17,-8.61,0,24.01
2022-05-19 13:15:20.317,5.38599975407124,0.0900000000000001,-1.2,0,-4.48
2022-05-19 13:15:20.431,5.50000034272671,1.48,4.31,0,-22.24
2022-05-19 13:15:20.546,5.61499670147896,2.42,5.52,0,-21.48
2022-05-19 13:15:20.661,5.72999306023121,2.53,2.34,0,-4.47
2022-05-19 13:15:20.771,5.84000051021576,1.65,-5.06,0,28.18
2022-05-19 13:15:20.886,5.95499686896801,0.0600000000000001,-13.74,0,62.35
2022-05-19 13:15:21.001,6.06999322772026,-1.61,-19.92,0,81.63
2022-05-19 13:15:21.115,6.18399381637573,-2.59,-20.38,0,75.82
2022-05-19 13:15:21.230,6.29900023341179,-2.44,-14.89,0,47.77
2022-05-19 13:15:21.344,6.41300082206726,-1.21,-5.88,0,9.89
2022-05-19 13:15:21.459,6.52799718081951,0.55,2.62,0,-20.28
2022-05-19 13:15:21.574,6.64299353957176,2.25,8.27,0,-37.6
2022-05-19 13:15:21.689,6.75799995660782,3.23,8.64,0,-32.85
2022-05-19 13:15:21.803,6.87200054526329,3.14,3.58,0,-7.84
2022-05-19 13:15:21.918,6.98699690401554,2.02,-4.81,0,27.2
2022-05-19 13:15:22.032,7.10099749267101,0.45,-12.3,0,54.09
2022-05-19 13:15:22.147,7.21599385142326,-0.86,-15.75,0,62.66
2022-05-19 13:15:22.262,7.33100026845932,-1.45,-14.64,0,52.61
2022-05-19 13:15:22.377,7.44599662721157,-1.19,-10.02,0,30.94
2022-05-19 13:15:22.492,7.56099298596382,-0.18,-3.21,0,3.83
2022-05-19 13:15:22.607,7.67599940299988,1.11,2.51,0,-15.57
2022-05-19 13:15:22.721,7.78999999165535,2.06,4.32,0,-17.34
2022-05-19 13:15:22.835,7.90400058031082,2.41,2.95,0,-8.48
2022-05-19 13:15:22.950,8.01899693906307,2.06,-1.33,0,10.85
2022-05-19 13:15:23.065,8.13399329781532,1.18,-6.68,0,32.1
2022-05-19 13:15:23.179,8.24799388647079,0.27,-10.07,0,42.68
2022-05-19 13:15:23.294,8.36300030350685,-0.26,-10.17,0,39.64
2022-05-19 13:15:23.409,8.4779966622591,-0.31,-8.35,0,31.34
2022-05-19 13:15:23.524,8.59299302101135,0.04,-5.29,0,19.19
2022-05-19 13:15:23.638,8.70699360966682,0.57,-2.74,0,10.94
2022-05-19 13:15:23.752,8.8209941983223,1.03,-1.34,0,7.5
2022-05-19 13:15:23.867,8.93600061535835,1.45,-0.13,0,3.42
2022-05-19 13:15:23.982,9.0509969741106,1.78,0.71,0,0.8
2022-05-19 13:15:24.092,9.16099436581135,2.09,1.62,0,-2.69
